User: anonymous   Login
Location: Caltech
(34.1382°N, 118.1253°W)
Time: 23:17:16
(UTC-07:00)
Language:

ALOS - Orbit

View from above orbital plane
View from above orbital plane
View from above satellite
View from above satellite

Ground track
Ground track

The orbit data is extracted from the following two-line orbital elements,

1 28931U 06002A   17080.96545750 +.00000033 +00000-0 +15219-4 0  9996
2 28931 097.8537 112.6469 0001049 125.0510 235.0792 14.62325199594717
Epoch (UTC): 21 March 2017 23:10:15
Eccentricity: 0.0001049
inclination: 97.8537°
perigee height: 685 km
apogee height: 686 km
right ascension of ascending node: 112.6469°
argument of perigee: 125.0510°
revolutions per day: 14.62325199
mean anomaly at epoch: 235.0792°
orbit number at epoch: 59471

The dashed part of the orbit path shows where the satellite is in the earth's shadow,  

DLR